CMA-CGM Fort Saint Pierre — FQFM — position and weather

sailwx.info

Track history (hours):
 
Tides and Currents Weather Stations Pressure Air Temp Water Temp Dewpoint Dewpoint Depression Visibility Wind Speed Wind Dir Waves Ship Positions

CMA-CGM Fort Saint Pierre

Last reported at 2014-Nov-27 07:20 UTC. Time now 2014-Nov-29 06:19 UTC.
Position N 38°04' W 030°35'.

Length 197 m; beam 30 m.

Type: Ship (hazmat cat A). MMSI: 226328000.

Date/timePositionNaut miles runAvg speedWind from/ knotsBaromVisibWave heightAir tempDewpointWater temp
2014-Nov-27 07:20N 38°04' W 030°35'1417.9
2014-Nov-27 06:33N 38°12' W 030°20'1817.8
2014-Nov-27 05:34N 38°21' W 030°01'1918.5
2014-Nov-27 04:33N 38°31' W 029°41'1818.3
2014-Nov-27 03:33N 38°41' W 029°21'1818.4
2014-Nov-27 02:33N 38°50' W 029°01'1918.7
2014-Nov-27 01:33N 39°00' W 028°41'1919.3
2014-Nov-27 00:34N 39°11' W 028°20'2019.5
2014-Nov-26 23:33N 39°21' W 027°58'1919.5
2014-Nov-26 22:34N 39°30' W 027°36'2219.4
2014-Nov-26 21:26N 39°39' W 027°10'  
2014-Nov-23 04:33N 47°47' W 004°44'1919.1
2014-Nov-23 03:33N 47°57' W 005°08'1818.2
2014-Nov-23 02:33N 48°09' W 005°28'1818.2
2014-Nov-23 01:33N 48°24' W 005°45'14717.7
2014-Nov-22 17:14N 49°59' W 002°53'1819.9
2014-Nov-22 16:18N 50°02' W 002°25'6922.5
2014-Nov-22 13:14N 49°42' W 000°42'1522.5
2014-Nov-22 12:33N 49°36' W 000°21'1817.6
2014-Nov-22 11:33N 49°29' E 000°04'3 3.3
2014-Nov-22 10:31N 49°28' E 000°09'0 0.0
2014-Nov-22 09:31N 49°28' E 000°09'0 0.0
2014-Nov-22 08:31N 49°28' E 000°09'0 0.0
2014-Nov-22 07:31N 49°28' E 000°09'0 0.0
2014-Nov-22 06:31N 49°28' E 000°09'0 0.0
2014-Nov-22 05:31N 49°28' E 000°09'0 0.0
2014-Nov-22 04:31N 49°28' E 000°09'0 0.0
2014-Nov-22 03:31N 49°28' E 000°09'0 0.0
2014-Nov-22 02:31N 49°28' E 000°09'0 0.0
2014-Nov-22 01:31N 49°28' E 000°09'0 0.0
2014-Nov-22 00:31N 49°28' E 000°09'0 0.0
2014-Nov-21 23:25N 49°28' E 000°09'0 0.0
2014-Nov-21 22:31N 49°28' E 000°09'0 0.0
2014-Nov-21 21:31N 49°28' E 000°09'0 0.0
2014-Nov-21 20:31N 49°28' E 000°09'0 0.0
2014-Nov-21 19:31N 49°28' E 000°09'0 0.0
2014-Nov-21 18:31N 49°28' E 000°09'0 0.0
2014-Nov-21 17:31N 49°28' E 000°09'0 0.0
2014-Nov-21 16:31N 49°28' E 000°09'0 0.0
2014-Nov-21 15:31N 49°28' E 000°09'0 0.0
2014-Nov-21 14:31N 49°28' E 000°09'0 0.0
2014-Nov-21 13:31N 49°28' E 000°09'0 0.0
2014-Nov-21 12:31N 49°28' E 000°09'0 0.0
2014-Nov-21 11:31N 49°28' E 000°09'0 0.0
2014-Nov-21 10:31N 49°28' E 000°09'4 4.1
2014-Nov-21 09:34N 49°29' E 000°04'8 7.9
2014-Nov-21 08:33N 49°26' E 000°14'1110.6
2014-Nov-21 07:29N 49°29' E 000°31'6 6.3
2014-Nov-21 06:34N 49°28' E 000°40'1 0.0
2014-Nov-20 07:28N 49°27' E 000°39'8 8.9
2014-Nov-20 06:33N 49°28' E 000°27'1413.7
2014-Nov-20 05:33N 49°26' E 000°06'1110.8
2014-Nov-20 04:33N 49°30' W 000°09'1110.5
2014-Nov-20 03:33N 49°40' W 000°11'5012.5
2014-Nov-19 23:34N 50°29' E 000°06'1414.4
2014-Nov-19 22:34N 50°33' E 000°28'1414.4
2014-Nov-19 21:34N 50°41' E 000°47'1414.4
2014-Nov-19 20:34N 50°50' E 001°05'1414.2
2014-Nov-19 19:34N 50°58' E 001°23'1414.5
2014-Nov-19 18:34N 51°07' E 001°42'1312.9
2014-Nov-19 17:33N 51°03' E 002°02'6 5.7
2014-Nov-19 16:28N 51°01' E 002°11'0 0.0
2014-Nov-19 15:31N 51°01' E 002°11'0 0.0
2014-Nov-19 14:16N 51°01' E 002°11'0 0.0
2014-Nov-19 13:31N 51°01' E 002°11'0 0.0
2014-Nov-19 12:31N 51°01' E 002°11'0 0.0
2014-Nov-19 11:28N 51°01' E 002°11'0 0.0
2014-Nov-19 10:04N 51°01' E 002°11'0 0.0
2014-Nov-19 09:31N 51°01' E 002°11'0 0.0
2014-Nov-19 08:19N 51°01' E 002°11'0 0.0
2014-Nov-19 07:10N 51°01' E 002°11'0 0.0
2014-Nov-19 06:25N 51°01' E 002°11'0 0.0
2014-Nov-19 05:04N 51°01' E 002°11'0 0.0
2014-Nov-19 04:16N 51°01' E 002°11'0 0.0
2014-Nov-19 03:25N 51°01' E 002°11'0 0.0
2014-Nov-19 02:22N 51°01' E 002°11'0 0.0
2014-Nov-19 01:28N 51°01' E 002°11'0 0.0
2014-Nov-18 22:07N 51°01' E 002°11'0 0.0
2014-Nov-18 21:28N 51°01' E 002°11'0 0.0
2014-Nov-18 20:07N 51°01' E 002°11'0 0.0
2014-Nov-18 18:11N 51°01' E 002°11'0 0.0
2014-Nov-18 17:10N 51°01' E 002°11'0 0.0
2014-Nov-18 14:31N 51°01' E 002°11'0 0.0
2014-Nov-18 13:17N 51°01' E 002°11'0 0.0
2014-Nov-18 12:31N 51°01' E 002°11'0 0.0
2014-Nov-18 11:31N 51°01' E 002°11'0 0.0
2014-Nov-18 10:22N 51°01' E 002°11'0 0.0
2014-Nov-18 09:19N 51°01' E 002°11'0 0.0
2014-Nov-18 08:13N 51°01' E 002°11'0 0.0
2014-Nov-18 07:31N 51°01' E 002°11'0 0.0
2014-Nov-18 06:25N 51°01' E 002°11'0 0.0
2014-Nov-18 05:13N 51°01' E 002°11'0 0.0
2014-Nov-18 03:31N 51°01' E 002°11'0 0.0
2014-Nov-18 02:28N 51°01' E 002°11'0 0.0
2014-Nov-18 01:31N 51°01' E 002°11'0 0.0
2014-Nov-18 00:31N 51°01' E 002°11'0 0.0
2014-Nov-17 22:31N 51°01' E 002°11'0 0.0
2014-Nov-17 21:31N 51°01' E 002°11'0 0.0
2014-Nov-17 20:19N 51°01' E 002°11'0 0.0
2014-Nov-17 19:25N 51°01' E 002°11'0 0.0
2014-Nov-17 18:31N 51°01' E 002°11'0 0.0
2014-Nov-17 17:31N 51°01' E 002°11'0 0.0
2014-Nov-17 16:31N 51°01' E 002°11'0 0.0
2014-Nov-17 15:13N 51°01' E 002°11'0 0.1
2014-Nov-17 14:25N 51°01' E 002°11'5 6.1
2014-Nov-17 13:33N 51°03' E 002°03'1111.3
2014-Nov-17 12:33N 51°01' E 001°45'  
Track history (hours):
 
Tides and Currents Weather Stations Pressure Air Temp Water Temp Dewpoint Dewpoint Depression Visibility Wind Speed Wind Dir Waves Ship Positions

CMA-CGM Fort Saint Pierre

Last reported at 2014-Nov-27 07:20 UTC. Time now 2014-Nov-29 06:19 UTC.
Position N 38°04' W 030°35'.

Length 197 m; beam 30 m.

Type: Ship (hazmat cat A). MMSI: 226328000.

Date/timePositionNaut miles runAvg speedWind from/ knotsBaromVisibWave heightAir tempDewpointWater temp
2014-Nov-27 07:20N 38°04' W 030°35'1417.9
2014-Nov-27 06:33N 38°12' W 030°20'1817.8
2014-Nov-27 05:34N 38°21' W 030°01'1918.5
2014-Nov-27 04:33N 38°31' W 029°41'1818.3
2014-Nov-27 03:33N 38°41' W 029°21'1818.4
2014-Nov-27 02:33N 38°50' W 029°01'1918.7
2014-Nov-27 01:33N 39°00' W 028°41'1919.3
2014-Nov-27 00:34N 39°11' W 028°20'2019.5
2014-Nov-26 23:33N 39°21' W 027°58'1919.5
2014-Nov-26 22:34N 39°30' W 027°36'2219.4
2014-Nov-26 21:26N 39°39' W 027°10'  
2014-Nov-23 04:33N 47°47' W 004°44'1919.1
2014-Nov-23 03:33N 47°57' W 005°08'1818.2
2014-Nov-23 02:33N 48°09' W 005°28'1818.2
2014-Nov-23 01:33N 48°24' W 005°45'14717.7
2014-Nov-22 17:14N 49°59' W 002°53'1819.9
2014-Nov-22 16:18N 50°02' W 002°25'6922.5
2014-Nov-22 13:14N 49°42' W 000°42'1522.5
2014-Nov-22 12:33N 49°36' W 000°21'1817.6
2014-Nov-22 11:33N 49°29' E 000°04'3 3.3
2014-Nov-22 10:31N 49°28' E 000°09'0 0.0
2014-Nov-22 09:31N 49°28' E 000°09'0 0.0
2014-Nov-22 08:31N 49°28' E 000°09'0 0.0
2014-Nov-22 07:31N 49°28' E 000°09'0 0.0
2014-Nov-22 06:31N 49°28' E 000°09'0 0.0
2014-Nov-22 05:31N 49°28' E 000°09'0 0.0
2014-Nov-22 04:31N 49°28' E 000°09'0 0.0
2014-Nov-22 03:31N 49°28' E 000°09'0 0.0
2014-Nov-22 02:31N 49°28' E 000°09'0 0.0
2014-Nov-22 01:31N 49°28' E 000°09'0 0.0
2014-Nov-22 00:31N 49°28' E 000°09'0 0.0
2014-Nov-21 23:25N 49°28' E 000°09'0 0.0
2014-Nov-21 22:31N 49°28' E 000°09'0 0.0
2014-Nov-21 21:31N 49°28' E 000°09'0 0.0
2014-Nov-21 20:31N 49°28' E 000°09'0 0.0
2014-Nov-21 19:31N 49°28' E 000°09'0 0.0
2014-Nov-21 18:31N 49°28' E 000°09'0 0.0
2014-Nov-21 17:31N 49°28' E 000°09'0 0.0
2014-Nov-21 16:31N 49°28' E 000°09'0 0.0
2014-Nov-21 15:31N 49°28' E 000°09'0 0.0
2014-Nov-21 14:31N 49°28' E 000°09'0 0.0
2014-Nov-21 13:31N 49°28' E 000°09'0 0.0
2014-Nov-21 12:31N 49°28' E 000°09'0 0.0
2014-Nov-21 11:31N 49°28' E 000°09'0 0.0
2014-Nov-21 10:31N 49°28' E 000°09'4 4.1
2014-Nov-21 09:34N 49°29' E 000°04'8 7.9
2014-Nov-21 08:33N 49°26' E 000°14'1110.6
2014-Nov-21 07:29N 49°29' E 000°31'6 6.3
2014-Nov-21 06:34N 49°28' E 000°40'1 0.0
2014-Nov-20 07:28N 49°27' E 000°39'8 8.9
2014-Nov-20 06:33N 49°28' E 000°27'1413.7
2014-Nov-20 05:33N 49°26' E 000°06'1110.8
2014-Nov-20 04:33N 49°30' W 000°09'1110.5
2014-Nov-20 03:33N 49°40' W 000°11'5012.5
2014-Nov-19 23:34N 50°29' E 000°06'1414.4
2014-Nov-19 22:34N 50°33' E 000°28'1414.4
2014-Nov-19 21:34N 50°41' E 000°47'1414.4
2014-Nov-19 20:34N 50°50' E 001°05'1414.2
2014-Nov-19 19:34N 50°58' E 001°23'1414.5
2014-Nov-19 18:34N 51°07' E 001°42'1312.9
2014-Nov-19 17:33N 51°03' E 002°02'6 5.7
2014-Nov-19 16:28N 51°01' E 002°11'0 0.0
2014-Nov-19 15:31N 51°01' E 002°11'0 0.0
2014-Nov-19 14:16N 51°01' E 002°11'0 0.0
2014-Nov-19 13:31N 51°01' E 002°11'0 0.0
2014-Nov-19 12:31N 51°01' E 002°11'0 0.0
2014-Nov-19 11:28N 51°01' E 002°11'0 0.0
2014-Nov-19 10:04N 51°01' E 002°11'0 0.0
2014-Nov-19 09:31N 51°01' E 002°11'0 0.0
2014-Nov-19 08:19N 51°01' E 002°11'0 0.0
2014-Nov-19 07:10N 51°01' E 002°11'0 0.0
2014-Nov-19 06:25N 51°01' E 002°11'0 0.0
2014-Nov-19 05:04N 51°01' E 002°11'0 0.0
2014-Nov-19 04:16N 51°01' E 002°11'0 0.0
2014-Nov-19 03:25N 51°01' E 002°11'0 0.0
2014-Nov-19 02:22N 51°01' E 002°11'0 0.0
2014-Nov-19 01:28N 51°01' E 002°11'0 0.0
2014-Nov-18 22:07N 51°01' E 002°11'0 0.0
2014-Nov-18 21:28N 51°01' E 002°11'0 0.0
2014-Nov-18 20:07N 51°01' E 002°11'0 0.0
2014-Nov-18 18:11N 51°01' E 002°11'0 0.0
2014-Nov-18 17:10N 51°01' E 002°11'0 0.0
2014-Nov-18 14:31N 51°01' E 002°11'0 0.0
2014-Nov-18 13:17N 51°01' E 002°11'0 0.0
2014-Nov-18 12:31N 51°01' E 002°11'0 0.0
2014-Nov-18 11:31N 51°01' E 002°11'0 0.0
2014-Nov-18 10:22N 51°01' E 002°11'0 0.0
2014-Nov-18 09:19N 51°01' E 002°11'0 0.0
2014-Nov-18 08:13N 51°01' E 002°11'0 0.0
2014-Nov-18 07:31N 51°01' E 002°11'0 0.0
2014-Nov-18 06:25N 51°01' E 002°11'0 0.0
2014-Nov-18 05:13N 51°01' E 002°11'0 0.0
2014-Nov-18 03:31N 51°01' E 002°11'0 0.0
2014-Nov-18 02:28N 51°01' E 002°11'0 0.0
2014-Nov-18 01:31N 51°01' E 002°11'0 0.0
2014-Nov-18 00:31N 51°01' E 002°11'0 0.0
2014-Nov-17 22:31N 51°01' E 002°11'0 0.0
2014-Nov-17 21:31N 51°01' E 002°11'0 0.0
2014-Nov-17 20:19N 51°01' E 002°11'0 0.0
2014-Nov-17 19:25N 51°01' E 002°11'0 0.0
2014-Nov-17 18:31N 51°01' E 002°11'0 0.0
2014-Nov-17 17:31N 51°01' E 002°11'0 0.0
2014-Nov-17 16:31N 51°01' E 002°11'0 0.0
2014-Nov-17 15:13N 51°01' E 002°11'0 0.1
2014-Nov-17 14:25N 51°01' E 002°11'5 6.1
2014-Nov-17 13:33N 51°03' E 002°03'1111.3
2014-Nov-17 12:33N 51°01' E 001°45'  

Dump ship's entire track history